�������r�C�����j�^�v���󋵏��
Date,Time,5�C6���@���p�r�C��,����,����(m/s)
2021/06/03,00:00,3.9,��,7.3
2021/06/03,00:10,3.9,��쐼,6.9
2021/06/03,00:20,3.7,��쐼,6.8
2021/06/03,00:30,3.8,��쐼,7.1
2021/06/03,00:40,4.0,��쐼,7.6
2021/06/03,00:50,3.8,��쐼,7.1
2021/06/03,01:00,3.8,��,6.8
2021/06/03,01:10,3.9,��쐼,6.6
2021/06/03,01:20,4.0,��쐼,5.9
2021/06/03,01:30,3.9,��쐼,5.4
2021/06/03,01:40,3.8,��쐼,5.2
2021/06/03,01:50,3.8,��,5.4
2021/06/03,02:00,4.0,��,5.4
2021/06/03,02:10,4.0,��,6.0
2021/06/03,02:20,3.9,��,6.8
2021/06/03,02:30,4.0,��,6.6
2021/06/03,02:40,3.8,��,5.8
2021/06/03,02:50,4.0,��,5.5
2021/06/03,03:00,3.8,��,5.4
2021/06/03,03:10,3.7,��,5.6
2021/06/03,03:20,3.9,��,5.3
2021/06/03,03:30,3.8,��,5.8
2021/06/03,03:40,4.0,��,6.1
2021/06/03,03:50,3.9,��,6.0
2021/06/03,04:00,3.9,��,6.0
2021/06/03,04:10,4.0,��,6.6
2021/06/03,04:20,3.9,��,6.6
2021/06/03,04:30,3.9,��,6.4
2021/06/03,04:40,3.9,��,5.9
2021/06/03,04:50,3.8,��,5.9
2021/06/03,05:00,3.9,��,6.0
2021/06/03,05:10,3.9,��,6.9
2021/06/03,05:20,3.9,��,8.2
2021/06/03,05:30,3.7,��,7.5
2021/06/03,05:40,4.2,��쐼,6.9
2021/06/03,05:50,3.8,��,7.0
2021/06/03,06:00,3.8,��,6.6
2021/06/03,06:10,3.9,��,6.6
2021/06/03,06:20,3.8,��,5.7
2021/06/03,06:30,3.9,��,5.1
2021/06/03,06:40,3.9,��,4.5
2021/06/03,06:50,3.8,��,4.7
2021/06/03,07:00,4.0,��,5.2
2021/06/03,07:10,3.9,��,6.1
2021/06/03,07:20,4.0,��,6.0
2021/06/03,07:30,3.8,��,6.1
2021/06/03,07:40,3.8,��,7.6
2021/06/03,07:50,3.9,��,9.6
2021/06/03,08:00,3.9,��,9.4
2021/06/03,08:10,3.8,��,9.1
2021/06/03,08:20,4.0,��쓌,11.6
2021/06/03,08:30,3.7,��쓌,12.4
2021/06/03,08:40,3.8,��쓌,11.9
2021/06/03,08:50,3.8,��,10.8
2021/06/03,09:00,3.9,��쓌,11.7
2021/06/03,09:10,3.9,��쓌,11.1
2021/06/03,09:20,3.9,��쓌,11.8
2021/06/03,09:30,4.0,��쓌,13.6
2021/06/03,09:40,3.9,��쓌,14.9
2021/06/03,09:50,4.1,��쓌,14.4
2021/06/03,10:00,3.9,��쓌,13.3
2021/06/03,10:10,3.9,��쓌,14.6
2021/06/03,10:20,3.9,��쓌,13.9
2021/06/03,10:30,3.8,��쓌,13.8
2021/06/03,10:40,3.9,��쓌,15.8
2021/06/03,10:50,3.9,��쓌,15.3
2021/06/03,11:00,3.9,��쓌,15.8
2021/06/03,11:10,3.8,��쓌,15.3
2021/06/03,11:20,3.7,��쓌,16.9
2021/06/03,11:30,3.9,��쓌,14.4
2021/06/03,11:40,3.9,��쓌,13.8
2021/06/03,11:50,4.1,��쓌,12.8
2021/06/03,12:00,3.7,��쓌,12.5
2021/06/03,12:10,3.9,��쓌,15.5
2021/06/03,12:20,3.8,��쓌,15.3
2021/06/03,12:30,3.8,��쓌,15.5
2021/06/03,12:40,4.0,��쓌,16.6
2021/06/03,12:50,3.8,��쓌,14.1
2021/06/03,13:00,3.9,��쓌,16.6
2021/06/03,13:10,3.9,-,-
2021/06/03,13:20,3.8,-,-
2021/06/03,13:30,3.9,-,-
2021/06/03,13:40,3.8,-,-
2021/06/03,13:50,3.8,-,-
2021/06/03,14:00,3.8,-,-
2021/06/03,14:10,3.9,-,-
2021/06/03,14:20,3.8,-,-
2021/06/03,14:30,3.8,-,-
2021/06/03,14:40,3.9,-,-
2021/06/03,14:50,3.9,-,-
2021/06/03,15:00,3.9,-,-
2021/06/03,15:10,4.0,-,-
2021/06/03,15:20,3.8,-,-
2021/06/03,15:30,3.7,-,-
2021/06/03,15:40,4.0,��쓌,12.7
2021/06/03,15:50,3.8,��쓌,11.4
2021/06/03,16:00,3.9,��,10.9
2021/06/03,16:10,3.8,��쓌,13.8
2021/06/03,16:20,3.7,��,11.8
2021/06/03,16:30,3.9,��,12.5
2021/06/03,16:40,4.0,��,11.1
2021/06/03,16:50,4.0,��,12.4
2021/06/03,17:00,3.8,��,11.7
2021/06/03,17:10,4.0,��,10.0
2021/06/03,17:20,3.9,��,11.1
2021/06/03,17:30,3.9,��,9.6
2021/06/03,17:40,3.9,��,9.2
2021/06/03,17:50,4.0,��,10.2
2021/06/03,18:00,3.8,��,10.0
2021/06/03,18:10,4.0,��,8.9
2021/06/03,18:20,3.8,��,8.7
2021/06/03,18:30,4.0,��,9.3
2021/06/03,18:40,3.9,��,9.3
2021/06/03,18:50,4.0,��,9.3
2021/06/03,19:00,3.9,��,9.9
2021/06/03,19:10,3.8,��,9.2
2021/06/03,19:20,3.9,��,9.7
2021/06/03,19:30,4.0,��,10.3
2021/06/03,19:40,3.7,��,9.7
2021/06/03,19:50,3.9,��,8.7
2021/06/03,20:00,3.8,��,10.2
2021/06/03,20:10,3.7,��,9.4
2021/06/03,20:20,3.8,��,9.4
2021/06/03,20:30,3.8,��,9.2
2021/06/03,20:40,3.9,��,7.5
2021/06/03,20:50,3.9,��,8.0
2021/06/03,21:00,4.0,��,7.0
2021/06/03,21:10,4.0,��,8.3
2021/06/03,21:20,4.0,��,7.8
2021/06/03,21:30,4.0,��,7.4
2021/06/03,21:40,3.7,��,8.0
2021/06/03,21:50,3.9,��,7.9
2021/06/03,22:00,3.8,��,7.0
2021/06/03,22:10,3.9,��,7.8
2021/06/03,22:20,3.9,��,9.7
2021/06/03,22:30,4.0,��,7.7
2021/06/03,22:40,3.9,��,9.1
2021/06/03,22:50,3.9,��,8.8
2021/06/03,23:00,3.9,��,9.3
2021/06/03,23:10,3.9,��,6.9
2021/06/03,23:20,3.8,��,9.4
2021/06/03,23:30,3.9,��,8.4
2021/06/03,23:40,3.9,��쓌,9.9
2021/06/03,23:50,3.9,��,9.6
